Tracking 19476 objects as of 17-Jan-2019
HD Live streaming from Space Station
objects crossing your sky now

OPS 6392 (FLTSATCOM 2)

Track OPS 6392 (FLTSATCOM 2) now!
OPS 6392 (FLTSATCOM 2) is classified as:


NORAD ID: 11353
Int'l Code: 1979-038A
Perigee: 36,195.5 km
Apogee: 36,374.8 km
Inclination: 13.3 °
Period: 1,461.3 minutes
Semi major axis: 42656 km
RCS: 5.8553 m2 (large)
Launch date: May 4, 1979
Source: United States (US)
Launch site: AIR FORCE EASTERN TEST RANGE (AFETR)
aabbcc
Your satellite tracking list
Your tracking list is empty




NASA's NSSDC Master Catalog

Two Line Element Set (TLE):
1 11353U 79038A   19015.54804542 -.00000067 +00000-0 +00000-0 0  9992
2 11353 013.2557 327.3811 0021027 002.9462 011.0680 00.98544069143681
Source of the keplerian elements: AFSPC